Location: Ebendorf
(52.1827°N, 11.5706°E)
Time: 08:50:02
(UTC+00:00)

CENTAUR R/B - Pass Details

Date: 15 May 2021
Orbit: 740 x 1447 km, 63.4° (Epoch: 22 June)

Event Time Altitude Azimuth Distance (km) Brightness Sun altitude
Rises 02:26:51 0° 180° (S) 3,396 4.9 -7.1°
Reaches altitude 10° 02:29:29 10° 168° (SSE) 2,551 4.4 -6.8°
Maximum altitude 02:34:25 28° 112° (ESE) 1,769 4.2 -6.2°
Drops below altitude 10° 02:40:04 10° 57° (ENE) 2,964 6.8 -5.6°
Sets 02:43:22 0° 47° (NE) 4,053 8.7 -5.2°
